Regional Weather Roundup
Issued by NWS Northern Indiana

Home | Current Version | Previous Version | Graphics & Text | Print | Product List | Glossary On
Versions: 1 2 3 4 5 6 7 8 9 10 11 12 13 14 15 16 17 18 19 20 21 22 23 24 25 26 27 28 29 30 31 32 33 34 35 36 37 38 39 40 41 42 43 44 45 46 47 48 49 50
000
ASUS43 KIWX 011010
RWRIWX

KIWX WEATHER ROUNDUP
NATIONAL WEATHER SERVICE NORTHERN INDIANA
500 AM EST SUN FEB 01 2015

NOTE: "FAIR" INDICATES FEW OR NO CLOUDS BELOW 12,000 FEET WITH NO
SIGNIFICANT WEATHER AND/OR OBSTRUCTIONS TO VISIBILITY.

* THESE STATIONS ARE NOT UNDER NWS QUALITY CONTROL. THEY ALSO MAY NOT
  REPORT WEATHER SUCH AS PRECIPITATION OR FOG.

INZ001>027-011100-
NORTHERN INDIANA

CITY           SKY/WX    TMP DP  RH WIND       PRES   REMARKS
VALPARAISO     LGT SNOW  32  31  96 SE7       30.05F FOG     WCI  26
MICHIGAN CITY* LGT SNOW  32  30  93 E3        30.06F
LAPORTE*       LGT SNOW  33  33 100 E6        30.05F WCI  28
KNOX*          CLOUDY    32  28  86 SE5       30.06F WCI  27
SOUTH BEND     LGT SNOW  31  28  89 E10       30.08F VSB 1   WCI  22
GOSHEN         LGT SNOW  32  31  96 NE5       30.08F VSB 3/4 WCI  27
MONTICELLO*    LGT SNOW  32  32 100 SE3       30.07F
LOGANSPORT*    LGT RAIN  32  32 100 SE6       30.09S WCI  26
ROCHESTER*     LGT SNOW  34  34 100 CALM      30.08S
WARSAW*        LGT SNOW  32  32 100 CALM      30.08F
ANGOLA*        CLOUDY    28  28 100 E5        30.09F WCI  23
FORT WAYNE     LGT SNOW  32  32 100 SE3       30.10F VSB 1
HUNTINGTON*    LGT RAIN  32  29  90 CALM      30.09S
PERU/GRISSOM   LGT SNOW  32  32 100 S7        30.08R FOG     WCI  26
MARION*        LGT SNOW  32  32 100 S7        30.11R WCI  26

$$
INZ028>050-011100-
CENTRAL INDIANA

CITY           SKY/WX    TMP DP  RH WIND       PRES   REMARKS
LAFAYETTE      LGT SNOW  32  31  96 E7        30.04F FOG     WCI  26
KOKOMO*        CLOUDY    34  28  80 S8        30.09S WCI  27
MUNCIE*        CLOUDY    33  31  92 S6        30.10S FOG     WCI  28
INDIANAPOLIS   CLOUDY    30  29  96 N6        30.06F WCI  24

$$
MIZ043>046-050>051-056>058-064>065-071>073-077>080-011100-
SOUTHWEST LOWER MICHIGAN

CITY           SKY/WX    TMP DP  RH WIND       PRES   REMARKS
BATTLE CREEK   LGT SNOW  27  23  85 E10       30.11F FOG     WCI  17
BENTON HARBOR  LGT SNOW  28  27  96 E8        30.09F VSB 3/4 WCI  20
COLDWATER*     LGT SNOW  29  28  97 E5        30.10F WCI  24
HILLSDALE*     LGT SNOW  29  29 100 E6        30.10S WCI  23
HOLLAND        LGT SNOW  27  22  81 E12       30.13F WCI  17
GRAND RAPIDS   LGT SNOW  23  20  88 NE17      30.14F FOG     WCI   9
KALAMAZOO      LGT SNOW  28  24  85 NE5       30.11F FOG     WCI  23
STURGIS*       LGT SNOW  28  28 100 CALM      30.09F VSB 1
THREE RIVERS*  LGT SNOW  29  28  96 E7        30.10F VSB 1   WCI  22

$$
OHZ001>008-015>018-024>025-011100-
NORTHWEST OHIO

CITY           SKY/WX    TMP DP  RH WIND       PRES   REMARKS
DEFIANCE       LGT SNOW  33  31  92 CALM      30.12F VSB 3/4
FINDLAY        LGT SNOW  32  30  92 SE5       30.12F FOG     WCI  27
TOLEDO EXPRESS LGT SNOW  29  28  96 NE6       30.13F FOG     WCI  23
TOLEDO METCALF LGT SNOW  31  28  89 NE5       30.15F FOG     WCI  26
LIMA           SNOW      33  31  92 S6        30.11F VSB 1/2 WCI  28

$$
AND FOR LAKE MICHIGAN COASTAL AND OPEN LAKE BUOY OBSERVATIONS

STATION/POSITION TEMP    WIND        PRES    VSBY  WAVE
                 AIR SEA DIR/SP/G                  HT/PER
                 (F)     (DEG/KT/KT) (MB)    (MI)  (FT/S)
CALUMET HARBOR    31      60/ 12/ 14   N/A
MICHIGAN CITY     30      60/  7/  8   N/A
SAINT JOSEPH      29      30/  2/  6 1019.3F

$$
&&


USA.gov is the U.S. government's official web portal to all federal, state and local government web resources and services.